| time (UTC) | temp F | wind direction | speed knots | gust knots | rain 1hr in | rain 24hr in | rain mn in | humidity % | barometer mb |
| 20260505024541 | 62 | 0 | 0.0 | 0.0 | 0.00 | 0.00 | 0.00 | 55 | 1012.2 |
| 20260505023035 | 62 | 0 | 0.0 | 0.0 | 0.00 | 0.00 | 0.00 | 55 | 1012.2 |
| 20260505021542 | 63 | 0 | 0.0 | 0.0 | 0.00 | 0.00 | 0.00 | 54 | 1012.3 |
| 20260505020035 | 63 | 0 | 0.0 | 0.0 | 0.00 | 0.00 | 0.00 | 53 | 1012.1 |
| 20260505014537 | 64 | 0 | 0.0 | 0.0 | 0.00 | 0.00 | 0.00 | 52 | 1012.0 |
| 20260505013038 | 65 | 0 | 0.0 | 0.0 | 0.00 | 0.00 | 0.00 | 49 | 1011.8 |
| 20260505011537 | 65 | 0 | 0.0 | 0.0 | 0.00 | 0.00 | 0.00 | 49 | 1011.9 |
| 20260505010036 | 66 | 0 | 0.0 | 0.0 | 0.00 | 0.00 | 0.00 | 47 | 1011.6 |
| 20260505004548 | 67 | 0 | 0.0 | 0.9 | 0.00 | 0.00 | 0.00 | 44 | 1011.6 |
| 20260505003035 | 68 | 0 | 0.0 | 5.2 | 0.00 | 0.00 | 0.00 | 42 | 1011.5 |
| 20260505001537 | 69 | 0 | 0.0 | 2.6 | 0.00 | 0.00 | 0.00 | 41 | 1011.6 |
| 20260505000055 | 70 | 222 | 0.9 | 3.5 | 0.00 | 0.00 | 0.00 | 40 | 1011.2 |
| 20260504234535 | 70 | 276 | 0.9 | 6.1 | 0.00 | 0.00 | 0.00 | 40 | 1011.2 |
| 20260504233035 | 72 | 0 | 0.0 | 0.9 | 0.00 | 0.00 | 0.00 | 39 | 1011.0 |
| 20260504231539 | 73 | 0 | 0.0 | 2.6 | 0.00 | 0.00 | 0.00 | 37 | 1011.1 |
| 20260504230048 | 74 | 230 | 0.9 | 5.2 | 0.00 | 0.00 | 0.00 | 35 | 1011.1 |
| 20260504224536 | 75 | 265 | 2.6 | 7.0 | 0.00 | 0.00 | 0.00 | 33 | 1011.0 |
| 20260504223036 | 76 | 260 | 1.7 | 7.0 | 0.00 | 0.00 | 0.00 | 33 | 1011.0 |
| 20260504221549 | 76 | 254 | 3.5 | 9.6 | 0.00 | 0.00 | 0.00 | 32 | 1011.1 |
| 20260504220040 | 76 | 225 | 4.3 | 9.6 | 0.00 | 0.00 | 0.00 | 32 | 1011.3 |
| 20260504214537 | 76 | 321 | 2.6 | 9.6 | 0.00 | 0.00 | 0.00 | 32 | 1011.3 |
| 20260504213043 | 76 | 242 | 2.6 | 8.7 | 0.00 | 0.00 | 0.00 | 31 | 1011.3 |
| 20260504211538 | 76 | 257 | 6.1 | 16.5 | 0.00 | 0.00 | 0.00 | 30 | 1011.4 |
| 20260504210047 | 76 | 252 | 2.6 | 9.6 | 0.00 | 0.00 | 0.00 | 31 | 1011.3 |
| 20260504204541 | 76 | 230 | 2.6 | 10.4 | 0.00 | 0.00 | 0.00 | 31 | 1011.4 |
| 20260504203042 | 77 | 263 | 5.2 | 10.4 | 0.00 | 0.00 | 0.00 | 29 | 1011.3 |
| 20260504201537 | 77 | 267 | 3.5 | 11.3 | 0.00 | 0.00 | 0.00 | 29 | 1011.4 |
| 20260504200036 | 76 | 269 | 4.3 | 8.7 | 0.00 | 0.00 | 0.00 | 30 | 1011.6 |
| 20260504194543 | 75 | 269 | 3.5 | 11.3 | 0.00 | 0.00 | 0.00 | 29 | 1011.8 |
| 20260504193041 | 77 | 257 | 4.3 | 13.9 | 0.00 | 0.00 | 0.00 | 29 | 1012.0 |
| 20260504191541 | 76 | 240 | 4.3 | 10.4 | 0.00 | 0.00 | 0.00 | 27 | 1012.1 |
| 20260504190038 | 76 | 303 | 3.5 | 11.3 | 0.00 | 0.00 | 0.00 | 27 | 1012.2 |
| 20260504184536 | 75 | 221 | 6.1 | 13.9 | 0.00 | 0.00 | 0.00 | 29 | 1012.7 |
| 20260504183034 | 76 | 290 | 5.2 | 10.4 | 0.00 | 0.00 | 0.00 | 28 | 1012.7 |
| 20260504181542 | 75 | 288 | 4.3 | 10.4 | 0.00 | 0.00 | 0.00 | 29 | 1013.1 |
| 20260504180041 | 74 | 234 | 2.6 | 10.4 | 0.00 | 0.00 | 0.00 | 30 | 1013.2 |
| 20260504174536 | 74 | 228 | 4.3 | 13.9 | 0.00 | 0.00 | 0.00 | 29 | 1013.4 |
| 20260504173045 | 74 | 273 | 2.6 | 7.8 | 0.00 | 0.00 | 0.00 | 31 | 1013.5 |
| 20260504171535 | 73 | 296 | 5.2 | 12.2 | 0.00 | 0.00 | 0.00 | 31 | 1013.8 |
| 20260504081537 | 50 | 260 | 0.0 | 2.6 | 0.00 | 0.00 | 0.00 | 73 | 1016.3 |
| 20260504044537 | 45 | 0 | 0.0 | 0.0 | 0.00 | 0.00 | 0.00 | 74 | 1016.6 |
| 20260504043035 | 44 | 0 | 0.0 | 0.0 | 0.00 | 0.00 | 0.00 | 76 | 1016.5 |
| 20260504041534 | 44 | 0 | 0.0 | 0.0 | 0.00 | 0.00 | 0.00 | 75 | 1016.5 |
| 20260504040049 | 44 | 0 | 0.0 | 0.0 | 0.00 | 0.00 | 0.00 | 77 | 1016.3 |
| 20260504034542 | 44 | 0 | 0.0 | 0.0 | 0.00 | 0.00 | 0.00 | 75 | 1016.4 |
| 20260504033038 | 44 | 0 | 0.0 | 0.0 | 0.00 | 0.00 | 0.00 | 74 | 1016.3 |
| 20260504031543 | 44 | 0 | 0.0 | 0.0 | 0.00 | 0.00 | 0.00 | 74 | 1016.2 |
| 20260504030036 | 45 | 0 | 0.0 | 0.0 | 0.00 | 0.00 | 0.00 | 72 | 1016.2 |